sat.trackr.live / text

‹ back to catalog

STARLINK-34876

NORAD 65400 · 2025-191X

PAYLOAD ACTIVE UNKNOWN

§ Identity

Operator
Country
US
Launch date
2025-08-30
Launch site
AFWTR
Launch vehicle
Mass (kg)
RCS (m²)

Purposes: comms

External: N2YO · Heavens-Above · Gunter

§ Orbital elements

Epoch: 2026-05-25T02:52:07.875840Z

Period
95.64 min
Inclination
97.4530°
Eccentricity
0.0002344
Mean motion
15.05659695 rev/d
Perigee alt
547.9 km
Apogee alt
551.1 km
Semi-major
6,927.6 km
B*
2.7848e-4
RAAN
16.5439°
Arg perigee
82.7239°
Mean anomaly
277.4254°
Rev number
4,177

§ Raw data

STARLINK-348761 65400U 25191X   26145.11953560  .00003963  00000+0  27848-3 0  99932 65400  97.4530  16.5439 0002344  82.7239 277.4254 15.05659695 41778

JSON: /api/v1/satellites/65400 · /tle

For live sub-satellite position, see the globe view (requires WebGL).

§ Visibility from observer

Set your observer location to see the next 7 days of passes ≥ 10°. The values pass through the URL so the page stays shareable.

No JS? Fill the form by hand. The geolocation button needs JavaScript.